Showing default

JAY-D2, 62665

Orbit data source: Space-Track

JAY-D2, 62665 is a Canadian payload satellite in SSO that was launched on Tue, 14 Jan 2025 UTC via an FALCON 9 launch vehicle from the Air Force Western Test Range (AFWTR). Payload-class satellites include a variety of spacecraft equipped with specific instruments for various scientific and technological missions. These include communications satellites like Starlink; space stations such as the ISS; scientific satellites like the Hubble; Earth observation satellites from companies like Planet Labs, Umbra, and HawkEye 360; GPS; miniature CubeSats for education and research; and military/defense satellites.

Loading next visibility...
Identifier
62665, 2025-009BJ
Orbit
SSO
Country
Flag of CACA
Related business
Manufacturer
UTIAS-SFL
Mission
Operational Commercial Imaging
Bus & Motor
DEFIANT, Unknown motor
Mass
~35 kg wet, ~35 kg dry
Launch date (UTC)
2025-01-14 (9 months ago)
Launch vehicle
FALCON 9
Launch site
Air Force Western Test Range (AFWTR)
Object type
Payload
Rocket body
Debris
Shape & HBR
Box + 2 Pan, 0.4 m
Radar Cross Section
0.165 m², Medium (>0.1 m² and < 1m²)

Expand to show TLE details & history
Last TLE update: 7 hours ago

TLE from 7 hours ago
0 JAY-D2
1 62665U 25009BJ  25290.93613299  .00009206  00000-0  43038-3 0  9999
2 62665  97.4130   8.6020 0005878 100.8531 259.3366 15.19983069 41902
Epoch: 2025-10-17T22:28Z
TLE epoch observation values (Epoch: 2025-10-17T22:28:01.890Z)
Latitude
Longitude
4.91977°
Altitude
509.733 km
Speed
7.609 km/s
True Right ascension
00h 34m 24s
True Declination
0° 00' 00"
Sunlit
Object was in full shadow at epoch
Visualization orbit readout
Latitude
Unknown
Longitude
Unknown
Altitude
Unknown
Speed
Unknown
Apparent Right ascension
Unknown
Apparent Declination
Unknown
Sunlit
N/A
Visualization observer readout
Local Sidereal Time
00:16:36
Azimuth
Unknown
Elevation
Unknown
Doppler factor
Unknown
Orbital elements
Apogee altitude
506.903 km
Perigee altitude
498.813 km
Semi-major axis
6,880.995 km
Eccentricity
0.00059
Inclination
97.413°
RAAN
8.602°
Arg. of periapsis
100.8531°
True anomaly
259.27042°
Mean anomaly
259.3366°
Eccentric anomaly
259.30351°
Mean motion
3.80247 °/min
Orbital period
94.68 mins
BSTAR
0.00043038
Loading maneuver chart data...
Computing Atmospheric mass density...
Loading historical data...
Loading historical data...
Loading historical data...
Loading historical data...
Loading historical data...
Loading historical data...
Loading historical data...

Documentation

Showing up to 5 results
|